Regional Weather Roundup
Issued by NWS Newport/Morehead, NC

Current Version | Previous Version | Graphics & Text | Print | Product List | Glossary Off
Versions: 1 2 3 4 5 6 7 8 9 10 11 12 13 14 15 16 17 18 19 20 21 22 23 24 25 26 27 28 29 30 31 32 33 34 35 36 37 38 39 40 41 42 43 44 45 46 47 48 49 50

000
ASUS42 KMHX 232025
RWRMHX
WEATHER ROUNDUP FOR EASTERN NORTH CAROLINA
NATIONAL WEATHER SERVICE NEWPORT/MOREHEAD CITY NC
400 PM EDT MON APR 23 2018

NOTE: "FAIR" INDICATES FEW OR NO CLOUDS BELOW 12,000 FEET
WITH NO SIGNIFICANT WEATHER AND/OR OBSTRUCTIONS TO VISIBILITY

NCZ015>017-031-032-045>047-102-103-232100-
NORTH COAST

CITY           SKY/WX    TMP DP  RH WIND       PRES   REMARKS
EDENTON        CLOUDY    65  52  62 E16       30.34S
ELIZABETH CITY FAIR      65  46  50 E20G28    30.36F
KITTY HAWK     FAIR      59  48  66 E9G17     30.35F
MANTEO         FAIR      63  47  55 E14G20    30.36F

$$

NCZ045>047-081-094-103-104-232100-
CENTRAL COAST

CITY           SKY/WX    TMP DP  RH WIND       PRES   REMARKS
FRISCO         CLOUDY    66  52  60 E13       30.35F

$$

NCZ095-097-098-100-101-232100-
SOUTHERN COAST

CITY           SKY/WX    TMP DP  RH WIND       PRES   REMARKS
BEAUFORT       FAIR      66  55  67 E10G20    30.30F
CEDAR ISLAND   NOT AVBL
JACKSONVILLE   LGT RAIN  67  52  58 E18G29    30.26F
PINEY ISLAND   NOT AVBL
WILMINGTON     CLOUDY    65  53  65 E14G23    30.24F


$$

NCZ011>013-027>030-043-044-078>080-089-090>093-098-232100-
COASTAL PLAIN

CITY           SKY/WX    TMP DP  RH WIND       PRES   REMARKS
AHOSKIE        PTSUNNY   65  48  53 SE14G21   30.32S
CLINTON        FAIR      64  55  71 E7G18     30.24F
ELIZABETHTOWN  LGT RAIN  61  56  82 MISG      30.19F
GOLDSBORO      LGT RAIN  66  52  59 SE15G22   30.24F
GREENVILLE     FAIR      70  48  46 E20G29    30.29F
HAVELOCK       CLOUDY    69  54  58 E17G26    30.31F
KENANSVILLE    CLOUDY    64  52  63 E7        30.25F
KINSTON        PTSUNNY   68  50  52 E17G25    30.28F
NEW BERN       FAIR      66  51  58 E10G22    30.30F
RICHLANDS      LGT RAIN  66  52  60 E15G22    30.26F
ROCKY MOUNT    CLOUDY    67  49  52 SE10G24   30.28F
WASHINGTON     FAIR      68  51  54 E18G26    30.30F
WHITEVILLE     RAIN      61  58  89 E13G18    30.19F

$$

AMZ130-135-150-152-154-156-158-170-250-252-270-ANZ085-086-088-633-658-670-232100-
MARINE OBSERVATIONS

STATION/POSITION TIME  TEMP    WIND        PRES    WAVE   SWELL
                       AIR SEA DIR/SP/G            HT/PER HT/PER
                 (UTC) (F)     (DEG/KT/KT) (MB)    (FT/S) (FT/S)
CHESAPEAKE LIGHT NOT AVBL
64 E VA BEACH    1950   54 51   80/ 12/ 14 1029.9    3/ 5   2/ 7
DUCK             2000   56 54   80/ 17/ 19 1027.9
2 E DUCK         2000      54                N/A     3/ 5
OREGON INLET     2000   58 59   60/  8/ 12 1028.0
13E OREGON INLT  1948      53                N/A     4/ 6   3/ 6
HATTERAS CG      2000   65 62  110/ 10/ 15 1027.1
DIAMOND BUOY     2010   67     100/ 21/ 25   N/A
CAPE LOOKOUT     2000          100/ 19/ 21 1026.1
BEAUFORT LAB     2000   66 63  110/ 14/ 18 1026.2
30 SE NEW RVR IN 2008   67 65  110/ 16/ 21 1024.6
30 SE NEW RVR IN 2000      65                N/A     8/ 7
27 SE WRIGHTSVLE 2008   67 65  120/ 19/ 27 1023.6
5 SE WRIGHTSVLE  2008   64 61  110/ 14/ 17 1023.6
225 S CAPE HAT   2010          110/ 19/ 25 1023.4
41 SE CHARLESTON 2000   68 67  110/ 27/ 39 1016.8

$$




USA.gov is the U.S. government's official web portal to all federal, state and local government web resources and services.